{"data":{"norad_id":53705,"epoch":"2026-09-20T21:30:09.764640Z","epoch_age_seconds":47205,"freshness":"FRESH","line1":"1 53705U 22107F   26263.89594635  .00001309  00000+0  48411-4 0  9994","line2":"2 53705  53.1608  83.6261 0000825  90.7024 269.4074 15.35406347224376","mean_motion":15.35406347,"eccentricity":8.25e-5,"inclination_deg":53.1608,"raan_deg":83.6261,"arg_perigee_deg":90.7024,"mean_anomaly_deg":269.4074,"bstar":4.8411e-5,"rev_number":22437,"period_min":93.786247713095,"perigee_km":459.14967596653,"apogee_km":460.2779213483,"semimajor_km":6837.8507986574,"source":"CELESTRAK","updated_at":"2026-09-21T09:00:32.982460Z"}}